Location: Allentsteig
(48.6833°N, 15.3167°E)
Time: 07:41:54
(UTC+00:00)

Cosmos 2298 Rocket - Pass Details

Date: 21 January 2021
Orbit: 775 x 784 km, 74.0° (Epoch: 24 February)

Event Time Altitude Azimuth Distance (km) Brightness Sun altitude
Exits shadow 03:13:47 - 7° (N) 2,420 6.7 -33.8°
Reaches altitude 10° 03:14:07 10° 10° (N) 2,353 6.7 -33.8°
Maximum altitude 03:16:55 14° 42° (NE) 2,069 6.7 -33.3°
Drops below altitude 10° 03:19:43 10° 74° (ENE) 2,348 7.3 -32.9°
Sets 03:23:19 0° 99° (E) 3,272 8.3 -32.3°
